Location: Detroit
(42.3310°N, 83.0460°W)
Time: 07:22:45
(UTC-04:00)

Explorer 11/Cluster Stage 4 - Pass Details

Date: 10 February 2023
Orbit: 466 x 1241 km, 28.8° (Epoch: 02 April)

Event Time Altitude Azimuth Distance (km) Brightness Sun altitude
Exits shadow 06:51:06 - 250° (WSW) 3,457 9.4 -8.8°
Reaches altitude 10° 06:53:01 10° 240° (WSW) 3,020 9.1 -8.4°
Maximum altitude 06:58:10 20° 198° (SSW) 2,480 9.1 -7.5°
Drops below altitude 10° 07:03:34 10° 156° (SSE) 3,193 10.3 -6.5°
Sets 07:07:25 0° 140° (SE) 4,160 11.3 -5.8°
